Location: Mentone
(34.5413°N, 85.5351°W)
Time: 02:23:18
(UTC-06:00)

Amateur Radio Satellites - All Passes

Search period start: 27 January 2015 01:53
Search period end: 28 January 2015 01:53
Location: Mentone, 34.5413°N, 85.5351°W

Satellite Date Start Highest point End Downlink Frequencies (MHz)
Time Altitude Azimuth
Gurwin Techsat 1B 27 Jan 01:57:11 02:02:19 48° 99° (E) 02:07:27 435.225
STARS 27 Jan 02:18:22 02:22:41 49° 260° (W) 02:27:01 437.465
KKS-1 27 Jan 02:19:15 02:23:15 31° 263° (W) 02:27:14 437.445
AIST 2 27 Jan 02:20:12 02:23:55 31° 113° (ESE) 02:27:45 435.215
AUBIESAT-1 27 Jan 02:26:18 02:30:27 54° 255° (WSW) 02:34:15 437.475
HORYU 2 27 Jan 02:26:22 02:30:04 26° 96° (E) 02:33:49 437.375
BEESAT 2 27 Jan 02:37:40 02:41:43 59° 301° (WNW) 02:45:51 435.950
DANDE 27 Jan 02:40:31 02:45:07 18° 82° (E) 02:50:31 436.750
O/OREOS (USA 219) 27 Jan 02:42:03 02:46:37 62° 252° (WSW) 02:51:07 437.305
Oscar 19 27 Jan 02:47:17 02:49:35 13° 295° (WNW) 02:51:36 437.125/150
BEESAT 3 27 Jan 02:54:54 02:58:39 33° 305° (NW) 03:02:24 437.485
ITAMSAT 1 27 Jan 02:55:32 03:00:05 30° 290° (WNW) 03:04:33 435.822/435.867
JAS-2 27 Jan 02:58:21 02:58:57 10° 90° (E) 03:00:05 435.910
CUSAT 1 27 Jan 03:20:14 03:27:25 43° 90° (E) 03:35:20 437.405
PCSat 27 Jan 03:24:26 03:28:52 27° 108° (ESE) 03:33:26 145.827
AO-7 27 Jan 03:34:03 03:42:10 55° 102° (ESE) 03:50:16 29.400- 29.500
Gurwin Techsat 1B 27 Jan 03:38:18 03:41:58 19° 293° (WNW) 03:45:26 435.225
MOZHAYETS 4 27 Jan 03:39:07 03:43:39 62° 75° (ENE) 03:48:12
GONETS M04 27 Jan 03:40:19 03:43:20 11° 300° (WNW) 03:45:31
AIST 2 27 Jan 03:59:17 04:02:37 21° 309° (NW) 04:05:53 435.215
HORYU 2 27 Jan 04:03:06 04:06:39 23° 290° (WNW) 04:10:05 437.375
DANDE 27 Jan 04:19:47 04:27:33 87° 278° (W) 04:36:20 436.750
RS-15 27 Jan 04:25:31 04:36:15 66° 114° (ESE) 04:47:03 29.354- 29.394
STRAND 1 27 Jan 04:33:34 04:35:47 13° 65° (ENE) 04:38:15 437.568
ISS 27 Jan 04:35:08 04:37:54 24° 34° (NE) 04:40:42 145.825
JAS-2 27 Jan 04:38:55 04:44:37 85° 284° (WNW) 04:51:03 435.910
Cubesat XI-IV 27 Jan 04:41:17 04:42:59 12° 89° (E) 04:45:04 437.490
PRISM 27 Jan 04:54:04 04:57:53 39° 73° (ENE) 05:01:45 437.425
CUTE-I 27 Jan 05:00:20 05:04:02 19° 93° (E) 05:07:56 437.470
CUSAT 1 27 Jan 05:03:10 05:10:33 39° 288° (WNW) 05:18:19 437.405
PCSat 27 Jan 05:07:14 05:12:10 34° 303° (WNW) 05:17:05 145.827
CUBESAT XI-V 27 Jan 05:24:30 05:29:00 59° 75° (ENE) 05:33:33 437.345
AO-7 27 Jan 05:27:35 05:34:36 30° 298° (WNW) 05:41:23 29.400- 29.500
YUBILEINY 27 Jan 05:48:44 05:56:32 36° 74° (ENE) 06:04:29 435.215
DANDE 27 Jan 06:07:06 06:12:29 18° 298° (WNW) 06:17:35 436.750
STRAND 1 27 Jan 06:09:28 06:14:31 64° 259° (W) 06:19:35 437.568
ISS 27 Jan 06:11:33 06:14:25 27° 229° (SW) 06:17:14 145.825
Cubesat XI-IV 27 Jan 06:18:19 06:23:41 70° 286° (WNW) 06:29:01 437.490
PRISM 27 Jan 06:31:36 06:33:38 13° 268° (W) 06:35:28 437.425
CUTE-I 27 Jan 06:39:16 06:44:22 44° 288° (WNW) 06:49:25 437.470
RS-15 27 Jan 06:39:43 06:49:26 34° 316° (NW) 06:59:02 29.354- 29.394
CUBESAT XI-V 27 Jan 07:05:50 07:06:56 11° 271° (W) 07:07:42 437.345
CANX-2 27 Jan 07:39:28 07:42:23 18° 93° (E) 07:45:24 2200.000
YUBILEINY 27 Jan 07:45:19 07:53:29 44° 271° (W) 08:01:32 435.215
BRITE-PL 27 Jan 07:56:22 08:01:49 47° 97° (E) 08:07:04 437.365/2234.400
HO-68 27 Jan 07:59:17 08:05:54 41° 98° (E) 08:12:35 435.675
AAUSAT CUBESAT 2 27 Jan 08:00:33 08:03:17 17° 93° (E) 08:06:09 437.432
CUTE 1.7 + AOD 2 27 Jan 08:03:18 08:07:05 32° 97° (E) 08:10:54 437.475
GOMX 1 27 Jan 08:04:01 08:09:02 38° 96° (E) 08:13:51 467.674
VERMONT LUNAR 27 Jan 08:21:10 08:24:28 42° 150° (SSE) 08:27:47 437.305
CUBEBUG 2 27 Jan 08:25:05 08:26:15 11° 89° (E) 08:27:43 437.445
DOVE 4 27 Jan 08:27:12 08:32:12 46° 97° (E) 08:36:57 437.250
CINEMA 3 27 Jan 08:31:55 08:35:57 27° 94° (E) 08:39:55 145.822/145.860
UKube-1 27 Jan 08:33:30 08:33:46 10° 90° (E) 08:34:23 .
SEEDS 27 Jan 08:36:55 08:41:07 73° 100° (E) 08:45:17 437.485
ZACube-1 27 Jan 08:42:32 08:44:01 12° 89° (E) 08:45:45 437.345
DX 1 27 Jan 08:49:09 08:52:05 18° 93° (E) 08:55:10 434.975-435.025
NANOSAT C BR1 27 Jan 08:51:31 08:53:27 13° 68° (ENE) 08:55:37 145.865
FUNcube-1 27 Jan 08:54:14 08:56:57 17° 92° (E) 08:59:48 145.935
RS-15 27 Jan 09:02:59 09:06:52 12° 349° (N) 09:10:30 29.354- 29.394
UNISAT 6 27 Jan 09:03:02 09:07:16 35° 73° (ENE) 09:11:34 437.425
QB50P2 27 Jan 09:03:24 09:06:21 19° 70° (ENE) 09:09:26 145.880/145.840
HUMSAT D 27 Jan 09:04:25 09:04:50 10° 89° (E) 09:05:33 437.325/437.525
PHONESAT 2.4 27 Jan 09:06:12 09:09:43 53° 151° (SSE) 09:13:16 2401.200-2431.200
COMPASS 1 27 Jan 09:06:55 09:11:00 56° 285° (WNW) 09:15:03 437.405
UWE-3 27 Jan 09:07:43 09:11:39 30° 95° (E) 09:15:33 435.000/436.395/437.385
QB50P1 27 Jan 09:13:05 09:16:27 24° 71° (ENE) 09:19:57 145.935-145.965
CANX-2 27 Jan 09:14:43 09:18:24 29° 287° (WNW) 09:22:00 2200.000
POLYITAN 1 27 Jan 09:25:45 09:29:37 34° 73° (ENE) 09:33:33 437.675
Oscar 11 27 Jan 09:31:57 09:36:16 75° 284° (WNW) 09:40:33 145.826/435.025
VELOX 1 27 Jan 09:31:58 09:35:10 20° 94° (E) 09:38:31 145.980
AAUSAT CUBESAT 2 27 Jan 09:35:23 09:39:02 29° 287° (WNW) 09:42:36 437.432
BRITE-PL 27 Jan 09:35:44 09:39:57 21° 292° (WNW) 09:43:54 437.365/2234.400
BUGSAT 1 27 Jan 09:36:33 09:40:11 33° 72° (ENE) 09:43:54 437.445
ANTELSAT 27 Jan 09:38:17 09:43:00 87° 82° (E) 09:47:46 437.575/2403.000
CUTE 1.7 + AOD 2 27 Jan 09:40:00 09:42:48 17° 290° (WNW) 09:45:28 437.475
GOMX 1 27 Jan 09:42:36 09:46:55 24° 291° (WNW) 09:50:56 467.674
DELFI C3 27 Jan 09:43:07 09:47:08 65° 284° (WNW) 09:51:08 145.870
SO-50 27 Jan 09:43:56 09:48:05 38° 114° (ESE) 09:52:24 436.795
POPSAT HIP 1 27 Jan 09:46:40 09:50:51 61° 76° (ENE) 09:55:06 437.405
HO-68 27 Jan 09:47:12 09:53:31 34° 294° (WNW) 09:59:41 435.675
TIGRISAT 27 Jan 09:47:25 09:52:08 77° 259° (W) 09:56:52 435.000
CUBEBUG 1 27 Jan 09:48:58 09:50:10 11° 90° (E) 09:51:41 437.445
DUCHIFAT 1 27 Jan 09:50:39 09:54:52 68° 77° (ENE) 09:59:09 145.980
CUBEBUG 2 27 Jan 09:58:57 10:03:27 54° 285° (WNW) 10:07:45 437.445
VERMONT LUNAR 27 Jan 09:59:14 10:02:36 44° 345° (NNW) 10:05:59 437.305
DOVE 4 27 Jan 10:06:00 10:09:35 18° 293° (WNW) 10:12:53 437.250
UKube-1 27 Jan 10:06:05 10:10:22 56° 285° (WNW) 10:14:38 .
CINEMA 3 27 Jan 10:09:03 10:13:06 26° 290° (WNW) 10:16:55 145.822/145.860
ZACube-1 27 Jan 10:16:30 10:20:47 48° 286° (WNW) 10:24:57 437.345
DX 1 27 Jan 10:24:29 10:28:28 33° 288° (WNW) 10:32:22 434.975-435.025
NANOSAT C BR1 27 Jan 10:24:55 10:29:00 44° 261° (W) 10:33:06 145.865
FUNcube-1 27 Jan 10:29:27 10:33:30 35° 287° (WNW) 10:37:23 145.935
50 SAT 27 Jan 10:33:37 10:37:41 76° 283° (WNW) 10:41:41 437.505
ESTCUBE 1 27 Jan 10:33:44 10:38:02 43° 98° (E) 10:42:21 437.505/2401.250
HUMSAT D 27 Jan 10:36:55 10:41:03 51° 285° (WNW) 10:45:06 437.325/437.525
AISAT 27 Jan 10:37:57 10:42:27 67° 284° (WNW) 10:46:54 437.250
QB50P2 27 Jan 10:38:18 10:42:05 30° 264° (W) 10:45:52 145.880/145.840
UNISAT 6 27 Jan 10:40:40 10:44:10 20° 267° (W) 10:47:32 437.425
UWE-3 27 Jan 10:44:41 10:48:02 20° 291° (WNW) 10:51:13 435.000/436.395/437.385
PHONESAT 2.4 27 Jan 10:44:55 10:48:23 41° 346° (NNW) 10:51:51 2401.200-2431.200
QB50P1 27 Jan 10:48:51 10:52:19 23° 265° (W) 10:55:43 145.935-145.965
BEESAT 2 27 Jan 11:01:09 11:04:45 28° 54° (NE) 11:08:22 435.950
POLYITAN 1 27 Jan 11:02:54 11:05:43 16° 268° (W) 11:08:22 437.675
VELOX 1 27 Jan 11:07:50 11:11:50 31° 288° (WNW) 11:15:46 145.980
BUGSAT 1 27 Jan 11:13:20 11:15:50 15° 268° (W) 11:18:11 437.445
SPROUT 27 Jan 11:17:10 11:20:52 27° 96° (E) 11:24:37 437.525
BEESAT 3 27 Jan 11:17:17 11:21:19 48° 58° (ENE) 11:25:17 437.485
RS-15 27 Jan 11:19:29 11:26:02 17° 26° (NNE) 11:33:11 29.354- 29.394
AIST 1 27 Jan 11:22:11 11:26:24 65° 279° (W) 11:30:38
CUBEBUG 1 27 Jan 11:22:36 11:26:57 53° 285° (WNW) 11:31:16 437.445
SO-50 27 Jan 11:25:16 11:28:48 21° 311° (NW) 11:32:19 436.795
VERMONT LUNAR 27 Jan 11:38:03 11:41:11 29° 2° (N) 11:44:20 437.305
GONETS M04 27 Jan 11:50:41 11:58:57 48° 77° (ENE) 12:07:17
TISAT 1 27 Jan 12:01:22 12:05:42 86° 284° (WNW) 12:09:59 437.305
ESTCUBE 1 27 Jan 12:11:54 12:14:37 15° 292° (WNW) 12:17:09 437.505/2401.250
PCSat 27 Jan 12:17:08 12:19:09 12° 45° (NE) 12:21:27 145.827
Oscar 19 27 Jan 12:18:48 12:23:56 69° 76° (ENE) 12:29:08 437.125/150
AIST 2 27 Jan 12:23:18 12:27:36 88° 243° (WSW) 12:31:48 435.215
PHONESAT 2.4 27 Jan 12:24:09 12:27:27 31° 4° (N) 12:30:45 2401.200-2431.200
ITAMSAT 1 27 Jan 12:30:56 12:35:19 30° 70° (ENE) 12:39:49 435.822/435.867
BEESAT 2 27 Jan 12:39:38 12:42:51 21° 249° (WSW) 12:45:56 435.950
SPROUT 27 Jan 12:53:29 12:56:50 21° 290° (WNW) 13:00:04 437.525
BEESAT 3 27 Jan 12:57:26 12:59:04 12° 251° (WSW) 13:00:27 437.485
SWISSCUBE 27 Jan 13:02:40 13:07:25 63° 101° (E) 13:12:09 437.505
Gurwin Techsat 1B 27 Jan 13:14:46 13:19:53 54° 74° (ENE) 13:25:05 435.225
VERMONT LUNAR 27 Jan 13:16:14 13:19:43 54° 18° (NNE) 13:23:11 437.305
BEESAT 27 Jan 13:18:52 13:23:41 88° 107° (ESE) 13:28:28 436.000
ITUPSAT 1 27 Jan 13:21:24 13:26:13 89° 284° (WNW) 13:31:01 437.325
HORYU 2 27 Jan 13:22:21 13:25:12 17° 69° (ENE) 13:28:13 437.375
RS-15 27 Jan 13:30:44 13:41:52 57° 54° (NE) 13:53:32 29.354- 29.394
GONETS M04 27 Jan 13:48:05 13:55:32 32° 273° (W) 14:02:44
PCSat 27 Jan 13:57:59 14:03:26 89° 54° (NE) 14:08:51 145.827
Oscar 19 27 Jan 14:02:03 14:03:52 11° 271° (W) 14:05:19 437.125/150
PHONESAT 2.4 27 Jan 14:02:45 14:06:23 65° 20° (NNE) 14:10:02 2401.200-2431.200
CUSAT 1 27 Jan 14:08:23 14:12:42 20° 64° (ENE) 14:16:28 437.405
ITAMSAT 1 27 Jan 14:10:24 14:14:49 27° 264° (W) 14:19:09 435.822/435.867
STARS 27 Jan 14:11:59 14:16:08 38° 98° (E) 14:20:17 437.465
KKS-1 27 Jan 14:13:28 14:17:56 65° 101° (E) 14:22:22 437.445
AUBIESAT-1 27 Jan 14:14:13 14:14:14 10° 97° (E) 14:14:29 437.475
AO-7 27 Jan 14:28:53 14:36:55 55° 68° (ENE) 14:45:03 29.400- 29.500
SWISSCUBE 27 Jan 14:42:56 14:44:50 12° 294° (WNW) 14:46:26 437.505
JAS-2 27 Jan 14:49:22 14:53:44 25° 70° (ENE) 14:58:01 435.910
VERMONT LUNAR 27 Jan 14:54:35 14:57:45 30° 213° (SSW) 15:00:54 437.305
Gurwin Techsat 1B 27 Jan 14:57:05 15:00:16 15° 269° (W) 15:03:12 435.225
HORYU 2 27 Jan 14:57:25 15:01:38 37° 262° (W) 15:05:49 437.375
DANDE 27 Jan 15:10:14 15:16:55 67° 78° (ENE) 15:21:49 436.750
M-CUBED/EXP-1 PRIME 27 Jan 15:11:10 15:14:29 87° 103° (ESE) 15:17:55 437.505
O/OREOS (USA 219) 27 Jan 15:12:32 15:15:58 23° 103° (ESE) 15:19:32 437.305
MOZHAYETS 4 27 Jan 15:38:52 15:42:03 19° 93° (E) 15:45:23
PHONESAT 2.4 27 Jan 15:41:44 15:44:48 25° 214° (SW) 15:47:51 2401.200-2431.200
RS-15 27 Jan 15:43:40 15:54:02 39° 251° (WSW) 16:04:31 29.354- 29.394
AUBIESAT-1 27 Jan 15:46:22 15:49:22 31° 290° (WNW) 15:52:24 437.475
STARS 27 Jan 15:49:31 15:52:21 16° 292° (WNW) 15:55:01 437.465
CUSAT 1 27 Jan 15:50:35 15:56:15 40° 271° (W) 16:00:31 437.405
KKS-1 27 Jan 15:53:22 15:54:07 10° 294° (WNW) 15:54:34 437.445
Cubesat XI-IV 27 Jan 15:59:42 16:02:32 15° 66° (ENE) 16:05:39 437.490
CUTE-I 27 Jan 16:18:56 16:22:58 23° 68° (ENE) 16:27:10 437.470
AO-7 27 Jan 16:23:00 16:30:06 29° 265° (W) 16:36:58 29.400- 29.500
JAS-2 27 Jan 16:33:36 16:38:48 34° 262° (W) 16:43:35 435.910
O/OREOS (USA 219) 27 Jan 16:51:26 16:55:17 27° 297° (WNW) 16:59:06 437.305
DANDE 27 Jan 16:56:27 16:59:09 13° 281° (W) 17:01:15 436.750
MOZHAYETS 4 27 Jan 17:15:18 17:19:24 33° 287° (WNW) 17:23:26
CUBESAT XI-V 27 Jan 17:25:41 17:29:02 20° 93° (E) 17:32:32 437.345
JUGNU 27 Jan 17:33:35 17:36:59 16° 170° (S) 17:40:27 437.505
Cubesat XI-IV 27 Jan 17:36:58 17:42:12 60° 259° (W) 17:47:28 437.490
CUTE-I 27 Jan 17:57:57 18:02:52 37° 262° (W) 18:07:46 437.470
SRMSAT 27 Jan 18:11:33 18:13:36 12° 166° (SSE) 18:15:45 437.500
PRISM 27 Jan 18:15:26 18:19:34 72° 284° (WNW) 18:23:42 437.425
SO-50 27 Jan 18:19:21 18:22:31 17° 47° (NE) 18:25:50 436.795
STRAND 1 27 Jan 18:23:32 18:28:36 58° 100° (E) 18:33:41 437.568
HO-68 27 Jan 18:25:34 18:30:35 22° 63° (ENE) 18:35:51 435.675
YUBILEINY 27 Jan 18:45:01 18:53:04 46° 90° (E) 19:01:16 435.215
CUTE 1.7 + AOD 2 27 Jan 18:54:02 18:56:39 16° 70° (ENE) 18:59:25 437.475
CUBESAT XI-V 27 Jan 19:02:21 19:06:35 34° 287° (WNW) 19:10:47 437.345
BRITE-PL 27 Jan 19:03:38 19:08:02 35° 71° (ENE) 19:12:50 437.365/2234.400
GOMX 1 27 Jan 19:08:40 19:12:48 28° 70° (ENE) 19:17:15 467.674
JUGNU 27 Jan 19:21:12 19:25:20 19° 180° (S) 19:29:28 437.505
SEEDS 27 Jan 19:25:57 19:29:44 32° 73° (ENE) 19:33:35 437.485
DOVE 4 27 Jan 19:29:11 19:33:30 32° 71° (ENE) 19:38:07 437.250
CINEMA 3 27 Jan 19:30:41 19:33:57 19° 68° (ENE) 19:37:27 145.822/145.860
DX 1 27 Jan 19:43:51 19:44:40 11° 66° (ENE) 19:45:46 434.975-435.025
COMPASS 1 27 Jan 19:54:42 19:58:51 60° 76° (ENE) 20:03:03 437.405
SRMSAT 27 Jan 19:58:06 20:02:06 18° 175° (S) 20:06:06 437.500
SO-50 27 Jan 19:58:39 20:03:31 58° 244° (WSW) 20:08:19 436.795
UWE-3 27 Jan 20:02:08 20:05:16 19° 69° (ENE) 20:08:35 435.000/436.395/437.385
CANX-2 27 Jan 20:03:33 20:07:50 65° 259° (W) 20:12:06 2200.000
STRAND 1 27 Jan 20:04:28 20:07:23 15° 294° (WNW) 20:10:03 437.568
HO-68 27 Jan 20:10:42 20:17:48 64° 258° (WSW) 20:24:54 435.675
AAUSAT CUBESAT 2 27 Jan 20:22:21 20:26:33 71° 260° (W) 20:30:46 437.432
Oscar 11 27 Jan 20:23:07 20:27:21 52° 75° (ENE) 20:31:37 145.826/435.025
DELFI C3 27 Jan 20:27:51 20:31:46 46° 75° (ENE) 20:35:42 145.870
VELOX 1 27 Jan 20:28:12 20:29:51 12° 67° (ENE) 20:31:44 145.980
CUTE 1.7 + AOD 2 27 Jan 20:28:23 20:32:21 35° 263° (W) 20:36:17 437.475
YUBILEINY 27 Jan 20:42:24 20:50:07 33° 287° (WNW) 20:57:40 435.215
BRITE-PL 27 Jan 20:42:48 20:46:42 23° 269° (W) 20:50:41 437.365/2234.400
GOMX 1 27 Jan 20:46:32 20:50:51 29° 266° (W) 20:55:20 467.674
CUBEBUG 2 27 Jan 20:53:00 20:57:42 82° 78° (ENE) 21:02:32 437.445
UKube-1 27 Jan 20:57:24 21:01:43 78° 76° (ENE) 21:06:04 .
SEEDS 27 Jan 21:02:48 21:05:41 17° 267° (W) 21:08:25 437.485
CINEMA 3 27 Jan 21:06:13 21:10:50 42° 263° (W) 21:15:35 145.822/145.860
DOVE 4 27 Jan 21:07:14 21:11:19 25° 267° (W) 21:15:27 437.250
ZACube-1 27 Jan 21:08:22 21:12:56 84° 78° (ENE) 21:17:35 437.345
JUGNU 27 Jan 21:10:17 21:13:42 15° 190° (S) 21:17:03 437.505
ISS 27 Jan 21:12:27 21:15:35 47° 134° (SE) 21:18:46 145.825
DX 1 27 Jan 21:16:12 21:20:29 59° 259° (W) 21:24:48 434.975-435.025
50 SAT 27 Jan 21:17:36 21:21:27 39° 74° (ENE) 21:25:21 437.505
FUNcube-1 27 Jan 21:20:57 21:25:31 71° 259° (W) 21:30:08 145.935
HUMSAT D 27 Jan 21:25:03 21:29:21 70° 76° (ENE) 21:33:42 437.325/437.525
ESTCUBE 1 27 Jan 21:30:34 21:34:16 26° 71° (ENE) 21:38:02 437.505/2401.250
AISAT 27 Jan 21:32:24 21:36:48 71° 75° (ENE) 21:41:15 437.250
AIST 1 27 Jan 21:33:41 21:36:58 21° 75° (ENE) 21:40:21
ANTELSAT 27 Jan 21:35:08 21:38:38 23° 94° (E) 21:42:08 437.575/2403.000
UWE-3 27 Jan 21:37:13 21:41:33 38° 263° (W) 21:45:55 435.000/436.395/437.385
POPSAT HIP 1 27 Jan 21:37:28 21:39:29 13° 91° (E) 21:41:43 437.405
DUCHIFAT 1 27 Jan 21:40:54 21:43:12 15° 92° (E) 21:45:42 145.980
TIGRISAT 27 Jan 21:43:41 21:47:29 28° 96° (E) 21:51:16 435.000
SRMSAT 27 Jan 21:46:37 21:50:37 18° 185° (S) 21:54:35 437.500
VELOX 1 27 Jan 22:01:43 22:06:02 53° 260° (W) 22:10:23 145.980
Oscar 11 27 Jan 22:02:44 22:03:55 11° 270° (W) 22:04:48 145.826/435.025
DELFI C3 27 Jan 22:06:13 22:07:20 11° 270° (W) 22:08:10 145.870
SPROUT 27 Jan 22:09:27 22:11:44 15° 69° (ENE) 22:14:12 437.525
NANOSAT C BR1 27 Jan 22:13:44 22:17:43 37° 98° (E) 22:21:42 145.865
CUBEBUG 1 27 Jan 22:15:11 22:19:30 81° 77° (ENE) 22:23:52 437.445
QB50P2 27 Jan 22:26:53 22:31:07 56° 100° (E) 22:35:19 145.880/145.840
UNISAT 6 27 Jan 22:35:14 22:39:40 67° 284° (WNW) 22:43:59 437.425
QB50P1 27 Jan 22:36:46 22:41:05 73° 101° (E) 22:45:21 145.935-145.965
ISS 27 Jan 22:50:01 22:52:18 17° 330° (NNW) 22:54:33 145.825
POLYITAN 1 27 Jan 22:50:25 22:54:45 75° 284° (WNW) 22:59:01 437.675
TISAT 1 27 Jan 22:50:27 22:54:27 43° 74° (ENE) 22:58:30 437.305
50 SAT 27 Jan 22:54:44 22:56:48 13° 269° (W) 22:58:39 437.505
BUGSAT 1 27 Jan 22:57:16 23:01:35 83° 281° (WNW) 23:05:51 437.445
ESTCUBE 1 27 Jan 23:07:30 23:11:08 23° 265° (W) 23:14:40 437.505/2401.250
AIST 1 27 Jan 23:11:00 23:14:37 25° 269° (W) 23:18:09
POPSAT HIP 1 27 Jan 23:11:33 23:15:39 42° 286° (WNW) 23:19:41 437.405
ANTELSAT 27 Jan 23:11:43 23:15:25 25° 289° (WNW) 23:18:57 437.575/2403.000
DUCHIFAT 1 27 Jan 23:15:16 23:19:17 38° 287° (WNW) 23:23:13 145.980
TIGRISAT 27 Jan 23:20:43 23:24:07 21° 290° (WNW) 23:27:20 435.000
SRMSAT 27 Jan 23:37:05 23:39:07 12° 194° (SSW) 23:41:01 437.500
SPROUT 27 Jan 23:43:28 23:47:32 41° 262° (W) 23:51:37 437.525
NANOSAT C BR1 27 Jan 23:50:39 23:53:20 16° 291° (WNW) 23:55:50 145.865
QB50P2 28 Jan 00:05:21 00:06:37 11° 293° (WNW) 00:07:38 145.880/145.840
SWISSCUBE 28 Jan 00:05:57 00:10:30 48° 73° (ENE) 00:15:05 437.505
BEESAT 28 Jan 00:21:53 00:26:35 67° 76° (ENE) 00:31:20 436.000
ITUPSAT 1 28 Jan 00:24:45 00:29:28 71° 75° (ENE) 00:34:14 437.325
TISAT 1 28 Jan 00:28:37 00:30:34 12° 269° (W) 00:32:17 437.305
Oscar 19 28 Jan 00:34:26 00:38:58 32° 96° (E) 00:43:32 437.125/150
GONETS M04 28 Jan 00:46:45 00:55:19 62° 92° (E) 01:03:55
ITAMSAT 1 28 Jan 00:48:38 00:51:06 14° 91° (E) 00:53:52 435.822/435.867
BEESAT 2 28 Jan 00:54:50 00:56:24 12° 109° (ESE) 00:58:13 435.950
AUBIESAT-1 28 Jan 00:59:43 01:00:48 11° 66° (ENE) 01:02:04 437.475
STARS 28 Jan 01:06:16 01:09:42 23° 70° (ENE) 01:13:16 437.465
KKS-1 28 Jan 01:08:24 01:12:31 38° 73° (ENE) 01:16:41 437.445
BEESAT 3 28 Jan 01:08:58 01:12:02 21° 112° (ESE) 01:15:15 437.485
O/OREOS (USA 219) 28 Jan 01:25:20 01:29:09 26° 62° (ENE) 01:33:02 437.305
Gurwin Techsat 1B 28 Jan 01:34:58 01:39:29 29° 95° (E) 01:44:05 435.225
SWISSCUBE 28 Jan 01:46:05 01:48:42 14° 269° (W) 01:51:05 437.505
